Regional Weather Roundup
Issued by NWS

Home | Current Version | Previous Version | Text Only | Print | Product List | Glossary On
Versions: 1 2 3 4 5 6 7 8 9 10 11 12 13 14 15 16 17 18 19 20 21 22 23 24 25 26 27 28 29 30 31 32 33 34 35 36 37 38 39 40 41 42 43 44 45 46 47 48 49 50
000
ASUS45 KPSR 290910
RWRAZ

ARIZONA REGIONAL HOURLY WEATHER ROUNDUP
NATIONAL WEATHER SERVICE PHOENIX AZ
200 AM MST SUN MAR 29 2015

NOTE: FAIR INDICATES FEW OR NO CLOUDS BELOW 12,000 FEET WITH NO
SIGNIFICANT WEATHER AND/OR OBSTRUCTIONS TO VISIBILITY.

AZZ001>003-036-291000-
NORTHWEST ARIZONA

CITY           SKY/WX    TMP DP  RH WIND       PRES   REMARKS
BULLHEAD CITY  CLEAR     72  23  16 CALM      29.97S
KINGMAN        CLEAR     50  24  36 SE5       30.12F
$$

AZZ004>008-015-016-018-291000-
NORTH CENTRAL ARIZONA

CITY           SKY/WX    TMP DP  RH WIND       PRES   REMARKS
GRAND CANYON   CLEAR     28  19  69 CALM      30.30F
WILLIAMS       CLEAR     37  21  52 S10       30.37S WCI  30
PRESCOTT       CLEAR     45  26  47 CALM      30.22F
FLAGSTAFF      CLEAR     40  20  44 W5        30.31F
PAYSON         CLEAR     52  23  32 CALM      30.24F
PAGE           CLEAR     61  22  22 W5        30.14S
$$

AZZ009>014-017-291000-
NORTHEAST ARIZONA

CITY           SKY/WX    TMP DP  RH WIND       PRES   REMARKS
WINSLOW        CLEAR     48  21  34 SW10      30.21S
SAINT JOHNS    PTCLDY    50  10  20 SW3       30.24R
WINDOW ROCK    CLEAR     51  15  23 CALM      30.27S
SHOW LOW       CLEAR     48  10  21 S9        30.30F
$$

AZZ023-291000-
GREATER PHOENIX AREA

CITY           SKY/WX    TMP DP  RH WIND       PRES   REMARKS
PHOENIX        CLEAR     71  29  21 E3        29.98R
BUCKEYE        CLEAR     59  36  41 NW3       29.98F
LUKE AFB       CLEAR     64  38  39 N3        29.98S
DEER VALLEY    CLEAR     70  27  20 CALM      30.00S
SCOTTSDALE     CLEAR     65  35  33 CALM      30.01S
MESA-GATEWAY   CLEAR     59  30  33 SE9       30.01F
$$

AZZ027-028-291000-
SOUTHWEST MARICOPA COUNTY AND PINAL COUNTY

CITY           SKY/WX    TMP DP  RH WIND       PRES   REMARKS
CASA GRANDE    CLEAR     59  25  27 CALM      29.99S
GILA BEND      FAIR      69  19  14 S8        29.97R
$$

AZZ503-504-507>509-291000-
SOUTHEAST ARIZONA

CITY           SKY/WX    TMP DP  RH WIND       PRES   REMARKS
TUCSON         CLEAR     63  25  23 SE9       30.10S
NOGALES        CLEAR     54  23  30 CALM      30.16F
SIERRA VISTA   MOCLDY    62  18  18 SW8       30.19F
DOUGLAS        PTCLDY    49  24  37 CALM      30.16F
SAFFORD        PTCLDY    54  16  22 SE5       30.10S
$$

AZZ020-021-025-026-031-291000-
SOUTHWEST ARIZONA

CITY           SKY/WX    TMP DP  RH WIND       PRES   REMARKS
YUMA           PTCLDY    74  36  25 SE5       29.94F
$$

CAZ031-033-041-043-047-048-061-291000-
SOUTHERN CALIFORNIA

CITY           SKY/WX    TMP DP  RH WIND       PRES   REMARKS
DOWNTOWN L.A.  CLEAR     60  57  89 CALM      30.04S
L.A. AIRPORT   FOG       57  57 100 NW3       30.04F VSB 1/4
SAN DIEGO      MOCLDY    63  59  87 NW3       30.06F
BURBANK        CLEAR     61  35  37 CALM      30.03F
ONTARIO        PTCLDY    63  45  51 CALM      30.04F
RIVERSIDE      PTCLDY    61  43  51 CALM      30.04F
PALM SPRINGS   PTCLDY    74  38  27 CALM      29.97S
EL CENTRO NAS  PTCLDY    71  25  17 W7        29.92F
IMPERIAL       PTCLDY    72  31  22 NW5       29.92F
BLYTHE         PTCLDY    67  32  27 N3        29.94S
NEEDLES        CLEAR     69  22  16 W3        29.96F
$$

NVZ020-UTZ003-291000-
SOUTHERN NEVADA-UTAH

CITY           SKY/WX    TMP DP  RH WIND       PRES   REMARKS
LAS VEGAS      CLEAR     69  19  15 SW9       29.99S
SALT LAKE CITY CLEAR     44  26  49 CALM      30.28S
$$

NMZ009-TXZ055-291000-
NEW MEXICO-WEST TEXAS

CITY           SKY/WX    TMP DP  RH WIND       PRES   REMARKS
ALBUQUERQUE    CLEAR     48  15  26 SE9       30.18R
EL PASO        CLEAR     77   0   5 W20       30.08R
$$


........................KEY........................
SKY/WX - SKY CONDITION/WEATHER
TMP    - TEMPERATURE IN FAHRENHEIT
DP     - DEW POINT IN FAHRENHEIT
RH     - RELATIVE HUMIDITY IN PERCENT
WIND   - DIRECTION AND SPEED IN MILES PER HOUR (MPH)
VRB    - VARIABLE WIND DIRECTION
PRES   - MEAN SEA LEVEL PRESSURE IN INCHES OF MERCURY
         F - FALLING PRESSURE   R - RISING PRESSURE
         S - STEADY PRESSURE
VSB    - VISIBILITY IN MILES
HX     - HEAT INDEX IN FAHRENHEIT
WCI    - WIND CHILL INDEX IN FAHRENHEIT
TC     - TEMPERATURE IN CELSIUS WHICH IS ALSO KNOWN AS
         TEMPERATURE IN CENTIGRADE
AFB    - AIR FORCE BASE
         LUKE AFB IS LUKE AIR FORCE BASE
         DAVIS-MONTHAN IS DAVIS-MONTHAN AIR FORCE BASE
NAS    - NAVAL AIR STATION
         EL CENTRO NAS IS EL CENTRO NAVAL AIR STATION
N/A    - NOT AVAILABLE



USA.gov is the U.S. government's official web portal to all federal, state and local government web resources and services.